Voltar ao catálogo

ICEYE-X48

AtivoCiênciaSSO
NORAD 63253·PAYLOAD·🇺🇸 United States

Lançado Mar 15, 2025 de Vandenberg Space Force Base

Loading…

Próximas Passagens (próximas 24 horas)

TLE

AtualizadoSource: Space-Track

Época: Sep 14, 2026, 16:28 UTC

1 63253U 25052AV  26257.68651687  .00001979  00000-0  17059-3 0  9993
2 63253  97.6721 148.4707 0000949 281.2959  78.8157 14.98446781 82077

Acompanhe ICEYE-X48 em tempo real com AllMySat

Download on the App Store